Location: Bukit Nyuki
(2.5885°N, 113.7476°E)
Time: 06:14:40
(UTC+00:00)

ARIANE 5 R/B - Pass Details

Date: 18 May 2021
Orbit: 266 x 31623 km, 2.3° (Epoch: 21 June)

Event Time Altitude Azimuth Distance (km) Brightness Sun altitude
Exits shadow 21:40:40 10° 269° (W) 1,568 4.0 -8.7°
Maximum altitude 21:43:22 77° 181° (S) 293 0.9 -8.1°
Drops below altitude 10° 21:45:09 10° 95° (E) 1,048 5.0 -7.7°
Sets 21:46:54 0° 93° (E) 2,018 6.7 -7.2°
